This is the latest recevied weather packets stored in our database for station/object KE8GJZ-2. If no packets are shown the sender has not sent any weather packets the latest 1 day(s).
| Time | Temp. | Humidity | Pressure | Rain* | Wind** | Luminosity | Snow |
|---|---|---|---|---|---|---|---|
| 1778038443 | 7.78° C | 75% | 1010 hPa | 0 mm | - | 0 W/m² | - |
| 1778037836 | 7.78° C | 79% | 1010.1 hPa | 0 mm | - | 0 W/m² | - |
| 1778037533 | 7.78° C | 79% | 1009.9 hPa | 0 mm | - | 0 W/m² | - |
| 1778036928 | 7.78° C | 84% | 1009.9 hPa | 0 mm | - | 0 W/m² | - |
| 1778036626 | 7.78° C | 85% | 1009.9 hPa | 0 mm | - | 0 W/m² | - |
| 1778036019 | 7.78° C | 83% | 1009.8 hPa | 0 mm | - | 0 W/m² | - |
| 1778035716 | 7.78° C | 82% | 1009.4 hPa | 0 mm | - | 0 W/m² | - |
| 1778035413 | 7.78° C | 81% | 1009.5 hPa | 0 mm | - | 0 W/m² | - |
| 1778035109 | 7.78° C | 80% | 1009.8 hPa | 0 mm | - | 0 W/m² | - |
| 1778034806 | 7.78° C | 80% | 1009.7 hPa | 0 mm | - | 0 W/m² | - |
| 1778034503 | 7.78° C | 77% | 1009.2 hPa | 0 mm | - | 0 W/m² | - |
| 1778033899 | 7.78° C | 75% | 1009.3 hPa | 0 mm | - | 0 W/m² | - |
| 1778033595 | 7.78° C | 74% | 1009.2 hPa | 0 mm | - | 0 W/m² | - |
| 1778033292 | 7.78° C | 73% | 1009.2 hPa | 0 mm | - | 0 W/m² | - |
| 1778032990 | 7.78° C | 72% | 1009.1 hPa | 0 mm | - | 0 W/m² | - |
| 1778032081 | 7.78° C | 73% | 1008.8 hPa | 0 mm | - | 0 W/m² | - |
| 1778031778 | 7.78° C | 74% | 1008.8 hPa | 0 mm | - | 0 W/m² | - |
| 1778031475 | 7.78° C | 70% | 1008.7 hPa | 0 mm | - | 0 W/m² | - |
| 1778031172 | 7.78° C | 70% | 1008.7 hPa | 0 mm | - | 0 W/m² | - |
| 1778030868 | 7.78° C | 70% | 1008.5 hPa | 0 mm | - | 0 W/m² | - |
| 1778030565 | 8.33° C | 68% | 1008 hPa | 0 mm | - | 0 W/m² | - |
| 1778030263 | 8.33° C | 68% | 1008.2 hPa | 0 mm | - | 0 W/m² | - |
| 1778029657 | 8.33° C | 67% | 1008.5 hPa | 0 mm | - | 0 W/m² | - |
| 1778029354 | 8.89° C | 65% | 1008.3 hPa | 0 mm | - | 0 W/m² | - |
| 1778028748 | 8.89° C | 65% | 1008.4 hPa | 0 mm | - | 0 W/m² | - |
* Rain latest hour (hover to see other rain measurements)
** Current wind speed in m/s (hover to see current wind gust speed)